Location: Ca�n Bargall�
(41.4594°N, 1.8818°E)
Time: 17:27:15
(UTC+00:00)

Daily predictions for brighter satellites

Satellite Brightness Start Highest point End
(mag) Time Altitude Azimuth Time Altitude Azimuth Time Altitude Azimuth
CZ-2C R/B 3.6 18:05:13 10° NE 18:09:45 26° E 18:14:10 10° SSE
IRS-1C Rocket 4.1 18:05:47 10° SSE 18:10:56 61° ENE 18:16:10 10° N
Meteor 1-20 Rocket 4.1 18:07:47 10° S 18:13:12 72° E 18:18:40 10° NNE
Cosmos 1302 Rocket 4.3 18:08:23 10° SSW 18:13:33 73° WNW 18:18:46 10° NNE
SL-4 R/B 3.8 18:12:57 10° NW 18:15:13 16° N 18:17:26 10° NE
ATLAS CENTAUR R/B 1.7 18:18:56 10° S 18:22:15 35° ESE 18:25:36 10° NE
Okean-O 2.7 18:22:36 10° SSE 18:26:56 58° ENE 18:31:18 10° N
CSL-04 Rocket 4.1 18:23:13 10° SE 18:28:22 41° ENE 18:33:29 10° N
Cosmos 44 Rocket 3.6 18:23:14 10° NNW 18:28:26 57° NE 18:33:30 10° SE
ERS-2 2.3 18:26:05 10° NNE 18:29:39 49° E 18:33:11 10° S
Cosmos 2084 Rocket 4.0 18:26:34 10° NNW 18:30:41 40° NE 18:34:56 10° ESE
Cosmos 1844 Rocket 3.4 18:25:52 10° N 18:30:50 32° ENE 18:35:45 10° ESE
SAR-Lupe-1 4.2 18:28:17 10° NNE 18:31:48 49° E 18:35:16 10° S
Cosmos 1666 4.1 18:29:54 10° SE 18:32:22 17° E 18:34:52 10° NE
HJ-1C 3.7 18:31:45 10° SSE 18:34:54 43° ENE 18:38:05 10° N
Cosmos 1271 Rocket 3.6 18:31:47 10° NNW 18:35:26 52° W 18:39:06 10° S
Cosmos 2341 Rocket 4.5 18:30:26 10° SSE 18:36:08 37° E 18:41:49 10° NNE
Cosmos 1503 Rocket 4.3 18:32:38 10° N 18:37:35 43° ENE 18:42:29 10° SE
Cosmos 1470 Rocket 3.5 18:35:44 10° S 18:40:10 68° E 18:44:36 10° NNE
PSLV R/B 3.9 18:36:41 10° NNE 18:40:47 89° ESE 18:44:50 10° SSW
Cosmos 2360 Rocket 2.2 18:37:02 10° S 18:42:32 58° ESE 18:48:06 10° NNE
Cosmos 1844 4.4 18:37:27 10° N 18:42:39 33° ENE 18:46:58 14° ESE
Cosmos 1602 4.2 18:40:01 10° SSW 18:43:51 65° W 18:47:46 10° N
Ariane Rocket 4.4 18:42:04 15° E 18:44:02 19° ENE 18:47:31 10° NNE
CZ-4B R/B 3.7 18:42:03 10° NNW 18:44:37 25° WNW 18:47:12 10° SW
Meteor 1-19 Rocket 4.3 18:44:44 10° N 18:50:42 87° E 18:56:27 10° S
Cosmos 1500 3.0 18:47:14 10° S 18:50:55 66° E 18:54:38 10° NNE
Cosmos 2333 Rocket 2.9 18:47:59 10° SSE 18:52:48 30° ESE 18:57:41 10° NE
IRIS 4.4 18:50:59 10° W 18:54:01 47° SSW 18:55:06 26° SE
Meteor 2-4 Rocket 3.9 18:49:29 10° N 18:55:15 56° ENE 19:01:04 10° SSE
Cosmos 1703 Rocket 4.0 18:51:17 10° N 18:55:24 38° ENE 18:59:28 10° SE
SL-08 RB Rocket 3.7 18:51:04 10° SSE 18:55:30 61° ENE 19:00:01 10° N
Meteor 2-12 Rocket 4.4 18:50:11 10° S 18:56:14 85° E 19:02:21 10° N
Cosmos 1689 Rocket 2.8 18:55:16 10° N 18:58:05 53° WNW 19:00:54 10° SSW
Cosmos 1933 Rocket 3.4 18:56:45 10° S 19:01:05 76° E 19:05:27 10° N
BREEZE-M DEB (TANK) 3.0 19:01:13 10° SSW 19:03:31 38° SE 19:03:36 38° SE
Aureole 2 Rocket 1.6 19:03:29 10° NNW 19:06:00 77° WSW 19:06:52 35° S
Resurs 01 Rocket 3.9 19:12:41 10° NE 19:12:41 10° NE 19:12:45 10° NE
Cosmos 2322 Rocket 3.3 19:07:15 10° SW 19:12:37 46° WNW 19:18:01 10° NNE
Cosmos 2242 Rocket 3.5 19:09:01 10° N 19:13:31 70° E 19:17:57 10° SSE
Lacrosse 4 Rocket 2.1 19:10:43 10° S 19:14:29 34° ESE 19:14:29 34° ESE
Abrixas rocket 3.9 19:14:28 10° NW 19:16:07 16° N 19:16:07 16° N
Helios 1A Rocket 3.4 19:13:56 10° S 19:17:56 59° W 19:21:57 10° NNW
YAOGAN 1 4.3 19:14:49 10° SSW 19:18:45 35° W 19:22:44 10° NNW
Cosmos 192 4.4 19:15:18 10° S 19:20:02 52° ESE 19:24:49 10° NNE
SME Rocket 4.1 19:12:39 10° NNE 19:20:03 51° E 19:24:57 10° S
COSMOS 2428 3.1 19:17:35 10° S 19:22:47 38° ESE 19:24:51 29° ENE
SJ-6B 3.1 19:22:30 46° E 19:22:48 47° ENE 19:26:42 10° N
GP-B 3.3 19:22:22 10° S 19:26:47 70° W 19:31:13 10° N
ASTEX 1 3.5 19:24:22 10° NNE 19:29:05 47° E 19:30:11 40° SE
Cosmos 2219 Rocket 2.2 19:24:18 10° S 19:29:42 53° ESE 19:35:08 10° NNE
Meteor 1-11 Rocket 3.7 19:24:28 10° S 19:30:04 56° E 19:35:34 10° NNE
MetOp-A 4.0 19:26:57 13° SSE 19:31:43 77° ENE 19:37:05 10° N
OBJECT-B 3.1 19:36:25 16° N 19:36:25 16° N 19:37:14 10° N
ARGOS 4.4 19:30:57 10° SSW 19:36:02 41° W 19:41:10 10° NNW
SL-16 R/B 4.4 19:32:59 10° WSW 19:37:36 25° NW 19:42:13 10° N
SJ 16-02 3.4 19:38:20 10° N 19:39:35 16° NNE 19:39:35 16° NNE
SeaSat 1 3.7 19:37:38 10° NNE 19:42:16 41° WNW 19:46:51 10° SW
CZ-4 R/B 4.5 19:40:19 10° SW 19:42:22 14° W 19:44:28 10° WNW
Okean 1-7 3.3 19:38:19 10° NNW 19:42:40 66° W 19:45:45 18° S
Cosmos 1066 Rocket 4.3 19:39:20 10° N 19:44:59 56° ENE 19:45:41 52° ESE
USA 234 3.3 19:39:54 17° NE 19:45:09 80° NW 19:51:42 10° SW
Meteor 1-13 Rocket 4.2 19:39:26 10° N 19:45:25 79° E 19:48:30 30° SSE
IRS-1A Rocket 4.1 19:46:43 43° SE 19:48:35 73° ENE 19:54:08 10° N
Cosmos 2322 3.7 19:43:57 10° SSW 19:49:41 83° WNW 19:55:27 10° NNE
CZ-2C R/B 4.0 19:45:04 10° N 19:50:09 40° WNW 19:55:06 10° SW
BREEZE-M DEB (TANK) 3.8 19:48:35 10° NW 19:51:09 31° NNE 19:51:09 31° NNE
Cosmos 1869 Rocket 3.8 19:51:04 10° SSW 19:55:23 66° W 19:59:46 10° N
SL-4 R/B 3.7 19:52:31 10° NW 19:54:13 22° NNW 19:54:13 22° NNW
SL-8 Rocket 4.3 19:51:32 10° SSW 19:57:43 66° W 20:03:55 10° N
ATLAS CENTAUR R/B 3.6 19:58:34 10° W 20:01:13 19° NW 20:03:10 13° N
Cosmos 2366 rocket 4.4 20:06:33 10° SSW 20:12:47 63° W 20:19:05 10° N
SL-08 R/B 4.4 20:11:58 51° S 20:13:46 81° E 20:20:16 10° N
Cosmos 1844 Rocket 3.9 20:09:39 10° NW 20:14:44 37° WSW 20:17:54 20° SSW
Cosmos 1777 Rocket 4.3 20:12:59 10° NNW 20:18:10 62° WSW 20:18:16 62° WSW
Ariane Rocket 3.5 20:22:15 55° WSW 20:22:33 56° W 20:27:34 10° NNW
Cosmos 2360 Rocket 4.4 20:22:34 10° WSW 20:26:56 23° NW 20:31:21 10° N
Cosmos 2278 Rocket 3.4 20:27:13 10° NNW 20:30:28 33° N 20:30:28 33° N
Cosmos 2333 Rocket 3.4 20:31:34 10° SW 20:36:53 40° WNW 20:42:16 10° N
Cosmos 1727 Rocket 4.2 20:31:22 10° NNW 20:37:29 64° W 20:37:44 64° WSW
Resurs 01 Rocket 4.2 20:50:14 15° NNW 20:50:14 15° NNW 20:51:04 10° NNW
Lacrosse 4 Rocket 4.1 20:49:41 10° WSW 20:50:57 16° W 20:50:57 16° W
COSMOS 2428 4.2 21:02:03 10° WSW 21:07:05 32° NW 21:07:14 32° NW
Cosmos 2219 Rocket 4.2 21:09:29 10° WSW 21:13:57 24° NW 21:18:29 10° N
